Regional Weather Roundup
Issued by NWS Goodland, KS

Home | Current Version | Previous Version | Graphics & Text | Print | Product List | Glossary On
Versions: 1 2 3 4 5 6 7 8 9 10 11 12 13 14 15 16 17 18 19 20 21 22 23 24 25 26 27 28 29 30 31 32 33 34 35 36 37 38 39 40 41 42 43 44 45 46 47 48 49 50
000
ASUS43 KGLD 211608
RWRGLD

GOODLAND FORECAST AREA HOURLY WEATHER ROUNDUP
NATIONAL WEATHER SERVICE GOODLAND KS
1000 AM MDT SAT APR 21 2018

...OFFICIAL OBSERVATIONS...

CITY           SKY/WX    TMP DP  RH WIND       PRES   REMARKS
GOODLAND KS    LGT RAIN  39  37  92 E7        30.18R
HILL CITY KS   LGT RAIN  43  42  97 E14       30.21R
IMPERIAL NEB   CLOUDY    40  38  93 NE10      30.22R
MCCOOK NEB     CLOUDY    41  40  96 E12       30.22R
AKRON CO       LGT SNOW  32  32 100 E7        30.18S FOG
BURLINGTON CO  CLOUDY    37  37 100 E10       30.17S
LIMON CO       CLOUDY    34  33  96 CALM      30.16R
$$

...UNOFFICIAL OBSERVATIONS...

CITY           SKY/WX    TMP DP  RH WIND       PRES   REMARKS
NORTON KS      DRIZZLE   43  39  87 NE10      30.21
SHARON SPRINGS   N/A     40  39  95 NE9         N/A
TRIBUNE KS     CLOUDY    41  39  93 N12       30.18R
KIT CARSON CO    N/A     38  33  84 CALM        N/A
YUMA CO        LGT SNOW  32  32 100 NE3       30.20R
$$



USA.gov is the U.S. government's official web portal to all federal, state and local government web resources and services.